DW0975 Weather Reports


time (UTC)temp
F
wind
direction
speed
knots
gust
knots
rain 1hr
in
rain 24hr
in
rain mn
in
humidity
%
barometer
mb
20191121004923 17 225 0.9 0.9 0.00 0.00 0.00 48 1021.0
20191121002922 17 225 0.0 0.0 0.00 0.00 0.00 46 1021.0
20191121000922 20 225 0.0 0.0 0.00 0.00 0.00 45 1021.0
20191120235922 21 225 0.0 0.0 0.00 0.00 0.00 45 1021.0
20191120233921 25 225 0.0 0.0 0.00 0.00 0.00 42 1021.0
20191120231920 26 225 0.0 0.9 0.00 0.00 0.00 42 1021.0
20191120224919 24 225 0.9 2.6 0.00 0.00 0.00 43 1021.0
20191120214918 34 225 1.7 3.5 0.00 0.00 0.00 30 1021.0
20191120212917 34 225 0.9 1.7 0.00 0.00 0.00 31 1021.0
20191120212016 35 225 0.0 0.9 0.00 0.00 0.00 32 1021.0
20191120210916 34 225 0.0 1.7 0.00 0.00 0.00 33 1021.0
20191120205916 34 225 0.9 2.6 0.00 0.00 0.00 32 1021.0
20191120200914 35 225 0.9 1.7 0.00 0.00 0.00 32 1021.0
20191120195915 36 158 0.9 1.7 0.00 0.00 0.00 32 1021.0
20191120193916 35 158 2.6 3.5 0.00 0.00 0.00 32 1021.9
20191120172910 30 315 0.0 0.9 0.00 0.00 0.00 54 1023.0
20191120170909 30 315 0.9 1.7 0.00 0.00 0.00 57 1023.0
20191120162908 27 315 0.9 0.9 0.00 0.00 0.00 64 1023.0
20191120155908 28 315 0.9 0.9 0.00 0.00 0.00 75 1023.0
20191120154908 27 315 0.0 0.9 0.00 0.00 0.00 74 1023.0
20191120153907 27 315 0.0 0.0 0.00 0.00 0.00 75 1023.0
20191120151907 26 315 0.0 0.0 0.00 0.00 0.00 75 1023.0
20191120144906 26 315 0.0 0.9 0.00 0.00 0.00 76 1021.9
20191120142905 26 315 0.0 0.9 0.00 0.00 0.00 75 1021.9
20191120134904 26 315 1.7 1.7 0.00 0.00 0.00 75 1021.0
20191120133904 26 315 0.9 1.7 0.00 0.00 0.00 75 1021.0
20191120132903 26 315 0.9 2.6 0.00 0.00 0.00 75 1021.0
20191120130903 26 315 2.6 3.5 0.00 0.00 0.00 75 1019.9
20191120125902 26 315 2.6 3.5 0.00 0.00 0.00 75 1019.9
20191120121901 27 315 2.6 4.3 0.00 0.00 0.00 74 1021.0
20191120115901 27 315 3.5 4.3 0.00 0.00 0.00 74 1019.9
20191120110859 28 315 3.5 6.1 0.00 0.00 0.00 74 1019.9
20191120104859 28 315 4.3 6.1 0.00 0.00 0.00 73 1021.0
20191120101858 28 315 6.1 7.8 0.00 0.00 0.00 72 1019.9
20191120100858 29 315 7.0 8.7 0.00 0.00 0.00 72 1019.9
20191120095858 29 315 7.8 9.6 0.00 0.00 0.00 73 1019.9
20191120093856 29 315 7.8 7.8 0.00 0.00 0.00 75 1019.9
20191120092927 29 315 3.5 9.6 0.00 0.00 0.00 75 1019.9
20191120091926 29 315 4.3 7.0 0.00 0.00 0.00 75 1019.0
20191120084926 29 315 4.3 11.3 0.00 0.00 0.00 74 1019.0
20191120083855 29 315 8.7 9.6 0.00 0.00 0.00 74 1019.0
20191120082855 29 315 7.0 11.3 0.00 0.00 0.00 74 1019.0
20191120081925 29 315 5.2 11.3 0.00 0.00 0.00 74 1019.0
20191120071923 29 315 8.7 10.4 0.00 0.00 0.00 76 1017.0
20191120070922 29 315 4.3 9.6 0.00 0.00 0.00 76 1016.0
20191120065922 29 315 7.8 12.2 0.00 0.00 0.00 74 1016.0
20191120062921 30 315 5.2 12.2 0.00 0.00 0.00 75 1017.0
20191120060921 30 315 8.7 12.2 0.00 0.00 0.00 76 1016.0
20191120054921 30 315 11.3 13.9 0.00 0.00 0.00 77 1015.0
20191120052920 30 315 8.7 13.0 0.00 0.00 0.00 78 1015.0
20191120041948 30 315 8.7 12.2 0.00 0.00 0.00 79 1015.0
20191120035918 30 315 9.6 13.9 0.00 0.00 0.00 80 1014.0
20191120022915 31 315 7.0 13.9 0.00 0.00 0.00 80 1012.0
20191120020915 31 315 9.6 13.0 0.00 0.00 0.00 82 1011.0
20191120015914 31 315 8.7 13.9 0.00 0.00 0.00 83 1011.0
20191120012913 31 315 11.3 14.8 0.00 0.00 0.00 82 1011.0
20191120011913 31 315 10.4 12.2 0.00 0.00 0.00 81 1011.0